Kilmarnock, Virginia, United States (22482)
Lat: 37.71N, Lon: 76.38W
Wx Zone: VAZ078
Local Info
Past Weather Observations for Saturday, October 18, 2014

NOTE: This archive is for the closest National Weather Service station to Kilmarnock. Information may differ from the station used for current weather conditions.

Click here for Long-term Archive

Time Weather Temperature Dewpoint Humidity Pressure Winds Precip Visibility
23:55
Clear
64°F / 18°C 54°F / 12°C 68% 29.74 in
(1007 mb)
SW 9.2 mph
(SW 15 kph)
- 10SM
23:35
Clear
64°F / 18°C 54°F / 12°C 68% 29.74 in
(1007 mb)
SW 6.9 mph
(SW 11 kph)
- 10SM
23:15
Clear
66°F / 19°C 54°F / 12°C 64% 29.74 in
(1007 mb)
SW 9.2 mph
(SW 15 kph)
- 10SM
22:55
Clear
66°F / 19°C 54°F / 12°C 64% 29.74 in
(1007 mb)
SW 6.9 mph
(SW 11 kph)
- 10SM
22:35
Clear
66°F / 19°C 54°F / 12°C 64% 29.74 in
(1007 mb)
SW 5.8 mph
(SW 9 kph)
- 10SM
22:15
Clear
66°F / 19°C 54°F / 12°C 64% 29.77 in
(1008 mb)
SW 4.6 mph
(SW 7 kph)
- 10SM
21:55
Clear
64°F / 18°C 54°F / 12°C 68% 29.77 in
(1008 mb)
SSE 3.5 mph
(SSE 6 kph)
- 10SM
21:35
Clear
66°F / 19°C 54°F / 12°C 64% 29.77 in
(1008 mb)
S 4.6 mph
(S 7 kph)
- 10SM
21:15
Clear
64°F / 18°C 54°F / 12°C 68% 29.77 in
(1008 mb)
S 3.5 mph
(S 6 kph)
- 10SM
20:55
Clear
63°F / 17°C 54°F / 12°C 73% 29.77 in
(1008 mb)
S 3.5 mph
(S 6 kph)
- 10SM
20:35
Clear
63°F / 17°C 55°F / 13°C 77% 29.77 in
(1008 mb)
Calm - 10SM
20:15
Clear
63°F / 17°C 55°F / 13°C 77% 29.77 in
(1008 mb)
Calm - 10SM
19:55
Clear
64°F / 18°C 54°F / 12°C 68% 29.77 in
(1008 mb)
S 3.5 mph
(S 6 kph)
- 10SM
19:35
Clear
64°F / 18°C 54°F / 12°C 68% 29.77 in
(1008 mb)
Calm - 10SM
19:15
Clear
66°F / 19°C 54°F / 12°C 64% 29.77 in
(1008 mb)
SSE 4.6 mph
(SSE 7 kph)
- 10SM
18:55
Clear
66°F / 19°C 54°F / 12°C 64% 29.77 in
(1008 mb)
S 3.5 mph
(S 6 kph)
- 10SM
18:35
Clear
66°F / 19°C 54°F / 12°C 64% 29.77 in
(1008 mb)
Calm - 10SM
18:15
Clear
68°F / 20°C 54°F / 12°C 60% 29.77 in
(1008 mb)
SSE 3.5 mph
(SSE 6 kph)
- 10SM
17:55
Clear
68°F / 20°C 52°F / 11°C 56% 29.77 in
(1008 mb)
S 4.6 mph
(S 7 kph)
- 10SM
17:35
Clear
70°F / 21°C 52°F / 11°C 53% 29.77 in
(1008 mb)
S 5.8 mph
(S 9 kph)
- 10SM
17:15
Clear
70°F / 21°C 52°F / 11°C 53% 29.77 in
(1008 mb)
S 4.6 mph
(S 7 kph)
- 10SM
16:55
Clear
72°F / 22°C 52°F / 11°C 50% 29.77 in
(1008 mb)
S 5.8 mph
(S 9 kph)
- 10SM
16:35
Clear
73°F / 23°C 50°F / 10°C 44% 29.77 in
(1008 mb)
S 9.2 mph
(S 15 kph)
- 10SM
16:15
Clear
75°F / 24°C 50°F / 10°C 41% 29.77 in
(1008 mb)
SSE 6.9 mph
(SSE 11 kph)
- 10SM
15:55
Clear
75°F / 24°C 50°F / 10°C 41% 29.77 in
(1008 mb)
SSE 6.9 mph
(SSE 11 kph)
- 10SM
15:35
Clear
75°F / 24°C 50°F / 10°C 41% 29.77 in
(1008 mb)
SW 8.1 mph
(SW 13 kph)
- 10SM
15:15
Clear
75°F / 24°C 48°F / 9°C 39% 29.77 in
(1008 mb)
SW 8.1 mph
(SW 13 kph)
- 10SM
14:55
Clear
75°F / 24°C 48°F / 9°C 39% 29.77 in
(1008 mb)
SW 9.2 mph
(SW 15 kph)
- 10SM
14:35
Clear
75°F / 24°C 48°F / 9°C 39% 29.77 in
(1008 mb)
SW 8.1 mph
(SW 13 kph)
- 10SM
14:15
Clear
75°F / 24°C 48°F / 9°C 39% 29.77 in
(1008 mb)
SW 10.4 mph
(SW 17 kph)
- 10SM
13:55
Clear
75°F / 24°C 46°F / 8°C 36% 29.8 in
(1009 mb)
SSE 6.9 mph
(SSE 11 kph)
- 10SM
13:35
Clear
75°F / 24°C 46°F / 8°C 36% 29.8 in
(1009 mb)
SSE 9.2 mph
(SSE 15 kph)
- 10SM
13:15
Clear
75°F / 24°C 46°F / 8°C 36% 29.8 in
(1009 mb)
SW 6.9 mph
(SW 11 kph)
- 10SM
12:55
Clear
75°F / 24°C 48°F / 9°C 39% 29.83 in
(1010 mb)
SW 6.9 mph
(SW 11 kph)
- 10SM
12:35
Clear
75°F / 24°C 50°F / 10°C 41% 29.83 in
(1010 mb)
SW 6.9 mph
(SW 11 kph)
- 10SM
12:15
Clear
73°F / 23°C 50°F / 10°C 44% 29.83 in
(1010 mb)
S 5.8 mph
(S 9 kph)
- 10SM
11:55
Clear
73°F / 23°C 50°F / 10°C 44% 29.83 in
(1010 mb)
SE 6.9 mph
(SE 11 kph)
- 10SM
11:35
Clear
73°F / 23°C 50°F / 10°C 44% 29.86 in
(1011 mb)
Calm - 10SM
11:15
Clear
72°F / 22°C 50°F / 10°C 47% 29.86 in
(1011 mb)
SW 4.6 mph
(SW 7 kph)
- 10SM
10:55
Clear
72°F / 22°C 52°F / 11°C 50% 29.86 in
(1011 mb)
Calm - 10SM
10:35
Clear
70°F / 21°C 52°F / 11°C 53% 29.89 in
(1012 mb)
SW 4.6 mph
(SW 7 kph)
- 10SM
10:15
Clear
68°F / 20°C 52°F / 11°C 56% 29.89 in
(1012 mb)
S 3.5 mph
(S 6 kph)
- 10SM
09:55
Clear
68°F / 20°C 52°F / 11°C 56% 29.89 in
(1012 mb)
S 3.5 mph
(S 6 kph)
- 10SM
09:35
Clear
66°F / 19°C 52°F / 11°C 60% 29.89 in
(1012 mb)
Calm - 10SM
09:15
Clear
64°F / 18°C 54°F / 12°C 68% 29.89 in
(1012 mb)
SW 3.5 mph
(SW 6 kph)
- 10SM
08:55
Clear
63°F / 17°C 52°F / 11°C 68% 29.89 in
(1012 mb)
W 3.5 mph
(W 6 kph)
- 10SM
08:35
Clear
63°F / 17°C 54°F / 12°C 73% 29.89 in
(1012 mb)
SSW 4.6 mph
(SSW 7 kph)
- 10SM
08:15
Clear
61°F / 16°C 54°F / 12°C 77% 29.89 in
(1012 mb)
SSW 3.5 mph
(SSW 6 kph)
- 10SM
07:55
Clear
59°F / 15°C 54°F / 12°C 82% 29.89 in
(1012 mb)
SSW 5.8 mph
(SSW 9 kph)
- 10SM
07:35
Clear
59°F / 15°C 54°F / 12°C 82% 29.89 in
(1012 mb)
SSW 5.8 mph
(SSW 9 kph)
- 10SM
07:15
Clear
57°F / 14°C 55°F / 13°C 94% 29.86 in
(1011 mb)
SW 3.5 mph
(SW 6 kph)
- 10SM
06:55
Clear
55°F / 13°C 52°F / 11°C 88% 29.86 in
(1011 mb)
Calm - 10SM
06:35
Clear
54°F / 12°C 52°F / 11°C 94% 29.83 in
(1010 mb)
Calm - 10SM
06:15
Clear
54°F / 12°C 50°F / 10°C 88% 29.83 in
(1010 mb)
Calm - 10SM
05:55
Clear
54°F / 12°C 50°F / 10°C 88% 29.83 in
(1010 mb)
Calm - 10SM
05:35
Clear
52°F / 11°C 50°F / 10°C 94% 29.83 in
(1010 mb)
Calm - 10SM
05:15
Clear
55°F / 13°C 54°F / 12°C 94% 29.83 in
(1010 mb)
SSW 3.5 mph
(SSW 6 kph)
- 10SM
04:55
Clear
54°F / 12°C 50°F / 10°C 88% 29.8 in
(1009 mb)
SSW 5.8 mph
(SSW 9 kph)
- 10SM
04:35
Clear
52°F / 11°C 50°F / 10°C 94% 29.8 in
(1009 mb)
Calm - 10SM
04:15
Clear
55°F / 13°C 52°F / 11°C 88% 29.8 in
(1009 mb)
SSW 3.5 mph
(SSW 6 kph)
- 10SM
03:55
Clear
55°F / 13°C 54°F / 12°C 94% 29.8 in
(1009 mb)
SW 3.5 mph
(SW 6 kph)
- 10SM
03:35
Clear
55°F / 13°C 52°F / 11°C 88% 29.8 in
(1009 mb)
SSW 5.8 mph
(SSW 9 kph)
- 10SM
03:15
Clear
57°F / 14°C 54°F / 12°C 88% 29.8 in
(1009 mb)
SW 3.5 mph
(SW 6 kph)
- 10SM
02:55
Clear
57°F / 14°C 54°F / 12°C 88% 29.8 in
(1009 mb)
Calm - 10SM
02:35
Clear
57°F / 14°C 54°F / 12°C 88% 29.77 in
(1008 mb)
SSW 3.5 mph
(SSW 6 kph)
- 10SM
02:15
Clear
59°F / 15°C 54°F / 12°C 82% 29.8 in
(1009 mb)
Calm - 10SM
01:55
Clear
59°F / 15°C 54°F / 12°C 82% 29.8 in
(1009 mb)
SSW 4.6 mph
(SSW 7 kph)
- 10SM
01:35
Clear
59°F / 15°C 54°F / 12°C 82% 29.8 in
(1009 mb)
SSW 4.6 mph
(SSW 7 kph)
- 10SM
01:15
Clear
59°F / 15°C 54°F / 12°C 82% 29.8 in
(1009 mb)
SSW 5.8 mph
(SSW 9 kph)
- 10SM
00:55
Clear
59°F / 15°C 55°F / 13°C 88% 29.8 in
(1009 mb)
SSW 5.8 mph
(SSW 9 kph)
- 10SM
00:35
Clear
61°F / 16°C 55°F / 13°C 83% 29.8 in
(1009 mb)
SSW 3.5 mph
(SSW 6 kph)
- 10SM
00:15
Clear
61°F / 16°C 55°F / 13°C 83% 29.8 in
(1009 mb)
Calm - 10SM
Time Weather Temperature Dewpoint Humidity Pressure Winds Precip Visibility


Weather for websites

WeatherForYou.com, LLC is not responsible for any damages or problems caused by this service. Current weather conditions are obtained from the closest station including government and personal stations which may have varying degrees of accuracy. Weather forecasts are derived from the NOAA NDFD. Like all things, this site belongs to Jesus Christ... He just trusts me to maintain it. If you have any questions or comments email webmaster@weatherforyou.com

Copyright © 2014, WeatherForYou.com LLC. All rights reserved.